IRIDIUM 141 (43077 NORAD) Tracking and Keplerian Element Data

This shows tracking and keplerian element data for the satellite.

Feedback or suggestion? Click here.




ElementValue
Catalog43077
NameIRIDIUM 141
Epoch Orbit19688
Epoch Day268.89661564
Epoch Year2021
RAAN323.0326
Inclination86.3973
Eccentricity0.0002127
Argument of Perigee87.9049
Mean Anonmoly272.239
Mean Motion14.34217467
Decay Rate9.1E-07
L11 43077U 17083H 21268.89661564 .00000091 00000-0 25392-4 0 9999
L22 43077 86.3973 323.0326 0002127 87.9049 272.2390 14.34217467196883

Live tracking and technical data element details for IRIDIUM 141 (NORAD 43077). IRIDIUM 141 can be tracked NOW for your location showing map with azimuth and elevation plus other details from your city location.

Track the satellite on the map from your city or location and see movement details for azimuth, elevation, latitude, longitude, range, height, and movement on the map or in text.







IsCatalogInMostPopularTable: catalog: 43077, numindb: 597
Update: records affected: 1



GetName: 43077 IRIDIUM 141

Hit Count: updated at: Mon, 27 Sep 2021 00:07:59 GMT